Location: Unspecified
(0.0000°N, 0.0000°E)
Time: 15:13:26
(UTC+00:00)

Transit 2A - Pass Details

Date: 13 December 2021
Orbit: 591 x 967 km, 66.7° (Epoch: 21 January)

Event Time Altitude Azimuth Distance (km) Brightness Sun altitude
Rises 20:08:05 0° 201° (SSW) 3,003 9.7 -30.4°
Reaches altitude 10° 20:10:17 10° 201° (SSW) 2,136 8.8 -30.9°
Enters shadow 20:13:11 38° 202° (SSW) 1,096 7.0 -31.5°
